{"data":{"norad_id":53025,"intl_designator":"2022-076AR","name":"STARLINK-4218","alt_names":[],"object_type":"PAYLOAD","status":"ACTIVE","operator":null,"country":"US","launch_date":"2022-07-07","launch_site_code":"AFETR","launch_vehicle":null,"mission":null,"orbit_class":"UNKNOWN","rcs_meters":null,"size_class":null,"mass_kg":null,"dimensions":null,"purposes":["comms"],"wikipedia_slug":null,"has_3d_model":false,"image_url":null,"decayed_at":null,"tle_current":{"epoch":"2026-09-19T16:29:23.360352Z","epoch_age_seconds":139704,"freshness":"FRESH","line1":"1 53025U 22076AR  26262.68707593 -.00000347  00000+0  79018-6 0  9990","line2":"2 53025  53.1620 285.7073 0001402  80.0133 280.1028 15.33542491232373","mean_motion":15.33542491,"eccentricity":0.0001402,"inclination_deg":53.162,"raan_deg":285.7073,"arg_perigee_deg":80.0133,"mean_anomaly_deg":280.1028,"bstar":7.9018e-7,"rev_number":23237,"period_min":93.9002348126,"perigee_km":464.29368192419,"apogee_km":466.21256851531,"semimajor_km":6843.3901252198,"source":"CELESTRAK","updated_at":"2026-09-20T09:00:40.146820Z"}}}